Flag for U.S.A. Weather past 2 weeks in Rancho Cucamonga, California, U.S.A.

Now
61 °F

Clear.


Feels Like: 61 °F
Forecast: 54 / 78 °F
Wind: 3 mph from Southwest

Location: Ontario International Airport

Current Time: Mar 31, 2015 at 1:54:17 AM

Latest Report: Mar 31, 2015 at 12:53 AM


Visibility: 10 mi

Pressure: 29.97 "Hg

Humidity: 75%

Dew point: 53 °F

Location of Rancho CucamongaLocation

Historic Weather in Rancho Cucamonga — Graph

°F

Rancho Cucamonga temperature yesterday

Maximum temperature yesterday: 85 °F (at 1:53 PM)
Minimum temperature yesterday: 57 °F (at 3:53 AM)
Average temperature yesterday: 70 °F

Past Weeks' High & Low Weather Summary

 TemperatureHumidityPressure
High92 °F (Mar 26, 2:53 PM)97% (Mar 21, 6:53 AM)30.18 "Hg (Mar 21, 6:53 AM)
Low53 °F (Mar 24, 5:53 AM)9% (Mar 26, 1:53 PM)29.84 "Hg (Mar 16, 2:53 PM)
Average69 °F49%30.00 "Hg
* Reported Mar 15 11:53 PM — Mar 30 11:53 PM, Rancho Cucamonga, Weather by CustomWeather, © 2015

Note: Actual official high and low records may vary slightly from our data, if they occured in-between our weather recording intervals... More about our weather records

Advertising

Rancho Cucamonga weather history for previous 24 hours

 ConditionsComfort  
Time TempWeatherWind HumidityBarometerVisibility
11:53 PM
Mon, Mar 30
63 °FClear.5 mph73%29.97 "Hg10 mi
10:53 PM64 °FClear.No wind63%29.97 "Hg10 mi
9:53 PM66 °FClear.7 mph59%29.97 "Hg10 mi
8:53 PM69 °FClear.6 mph57%29.96 "Hg10 mi
7:53 PM71 °FPassing clouds.9 mph36%29.94 "Hg10 mi
6:53 PM75 °FPassing clouds.13 mph42%29.91 "Hg10 mi
5:53 PM80 °FSunny.14 mph34%29.90 "Hg10 mi
4:53 PM83 °FSunny.15 mph33%29.89 "Hg9 mi
3:53 PM85 °FPassing clouds.13 mph23%29.90 "Hg10 mi
2:53 PM85 °FPassing clouds.12 mph21%29.92 "Hg10 mi
1:53 PM85 °FPassing clouds.13 mph23%29.94 "Hg10 mi
12:53 PM83 °FSunny.10 mph24%29.96 "Hg10 mi
11:53 AM79 °FSunny.5 mph32%29.98 "Hg10 mi
10:53 AM73 °FSunny.3 mph41%29.99 "Hg10 mi
9:53 AM68 °FSunny.3 mph51%30.00 "Hg10 mi
8:53 AM65 °FSunny.No wind52%30.00 "Hg10 mi
7:53 AM60 °FSunny.No wind69%29.99 "Hg10 mi
6:53 AM57 °FPassing clouds.No wind64%29.98 "Hg10 mi
5:53 AM60 °FClear.No wind60%29.96 "Hg10 mi
4:53 AM60 °FClear.3 mph62%29.95 "Hg10 mi
3:53 AM57 °FClear.No wind81%29.96 "Hg10 mi
2:53 AM60 °FPassing clouds.No wind69%29.96 "Hg10 mi
1:53 AM61 °FPassing clouds.No wind65%29.97 "Hg10 mi
Weather by CustomWeather, © 2015

See weather overviewHow to use our weather pages